Location: Casteau
(50.5142°N, 4.0161°E)
Time: 20:35:26
(UTC+00:00)

Transit 2A - Pass Details

Date: 28 July 2021
Orbit: 594 x 964 km, 66.7° (Epoch: 27 September)

Event Time Altitude Azimuth Distance (km) Brightness Sun altitude
Rises 14:27:02 0° 324° (NW) 3,147 9.2 45.7°
Reaches altitude 10° 14:29:22 10° 329° (NNW) 2,278 8.6 45.4°
Maximum altitude 14:34:30 53° 46° (NE) 990 6.8 44.7°
Drops below altitude 10° 14:40:10 10° 123° (ESE) 2,513 8.6 43.9°
Sets 14:42:50 0° 128° (SE) 3,500 9.2 43.5°
